Location: Deer Lodge Site
(39.6809°N, 119.9392°W)
Time: 16:28:05
(UTC-08:00)

Amateur Radio Satellites - All Passes

Search period start: 31 January 2015 15:58
Search period end: 01 February 2015 15:58
Location: Deer Lodge Site, 39.6809°N, 119.9392°W

Satellite Date Start Highest point End Downlink Frequencies (MHz)
Time Altitude Azimuth
Cubesat XI-IV 31 Jan 16:01:11 16:03:41 14° 62° (ENE) 16:06:27 437.490
AO-7 31 Jan 16:04:50 16:12:50 47° 260° (W) 16:20:49 29.400- 29.500
JAS-2 31 Jan 16:11:33 16:17:01 71° 258° (WSW) 16:22:13 435.910
DANDE 31 Jan 16:12:40 16:17:13 22° 277° (W) 16:20:47 436.750
O/OREOS (USA 219) 31 Jan 16:17:52 16:22:03 37° 298° (WNW) 16:26:15 437.305
CUTE-I 31 Jan 16:19:01 16:22:43 20° 64° (ENE) 16:26:35 437.470
CUSAT 1 31 Jan 16:29:59 16:31:33 11° 282° (WNW) 16:32:42 437.405
M-CUBED/EXP-1 PRIME 31 Jan 16:46:45 16:48:44 15° 296° (WNW) 16:50:38 437.505
YUBILEINY 31 Jan 17:26:35 17:30:08 14° 78° (ENE) 17:34:23 435.215
MOZHAYETS 4 31 Jan 17:31:57 17:36:13 39° 288° (WNW) 17:40:27
Cubesat XI-IV 31 Jan 17:37:52 17:43:11 79° 256° (WSW) 17:48:34 437.490
CUBESAT XI-V 31 Jan 17:55:05 17:59:01 27° 94° (E) 18:03:02 437.345
CUTE-I 31 Jan 17:57:15 18:02:26 53° 260° (W) 18:07:40 437.470
SO-50 31 Jan 17:58:07 18:02:48 43° 52° (NE) 18:07:31 436.795
JUGNU 31 Jan 18:04:28 18:04:59 10° 182° (S) 18:05:28 437.505
PRISM 31 Jan 18:25:48 18:29:58 79° 104° (ESE) 18:34:08 437.425
GOMX 1 31 Jan 18:46:19 18:49:08 15° 63° (ENE) 18:52:16 467.674
DOVE 4 31 Jan 18:47:29 18:48:33 11° 61° (ENE) 18:49:57 437.250
SRMSAT 31 Jan 18:49:49 18:50:31 10° 177° (S) 18:51:16 437.500
HO-68 31 Jan 18:55:45 19:01:52 33° 63° (ENE) 19:08:08 435.675
BRITE-PL 31 Jan 19:03:07 19:07:33 30° 68° (ENE) 19:12:19 437.365/2234.400
CANX-2 31 Jan 19:04:41 19:07:41 19° 68° (ENE) 19:10:48 2200.000
STRAND 1 31 Jan 19:06:53 19:12:04 87° 285° (WNW) 19:17:14 437.568
AAUSAT CUBESAT 2 31 Jan 19:08:06 19:09:21 11° 65° (ENE) 19:10:48 437.432
YUBILEINY 31 Jan 19:17:04 19:25:44 80° 95° (E) 19:34:28 435.215
CUTE 1.7 + AOD 2 31 Jan 19:27:35 19:31:19 30° 71° (ENE) 19:35:07 437.475
CUBESAT XI-V 31 Jan 19:32:21 19:36:28 30° 290° (WNW) 19:40:31 437.345
SO-50 31 Jan 19:39:13 19:43:10 24° 248° (WSW) 19:46:59 436.795
Oscar 11 31 Jan 19:40:43 19:42:48 14° 66° (ENE) 19:45:06 145.826/435.025
CINEMA 3 31 Jan 19:47:54 19:51:46 24° 68° (ENE) 19:55:47 145.822/145.860
SEEDS 31 Jan 19:53:52 19:57:59 51° 74° (ENE) 20:02:08 437.485
COMPASS 1 31 Jan 20:16:12 20:20:26 78° 77° (ENE) 20:24:39 437.405
UKube-1 31 Jan 20:16:35 20:19:39 20° 67° (ENE) 20:22:51 .
DELFI C3 31 Jan 20:20:12 20:23:39 27° 71° (ENE) 20:27:09 145.870
DOVE 4 31 Jan 20:20:25 20:25:31 83° 77° (ENE) 20:30:51 437.250
GOMX 1 31 Jan 20:21:31 20:26:37 72° 259° (W) 20:32:03 467.674
ISS 31 Jan 20:28:14 20:31:26 56° 139° (SE) 20:34:40 145.825
ZACube-1 31 Jan 20:36:05 20:39:58 28° 70° (ENE) 20:43:56 437.345
CANX-2 31 Jan 20:39:27 20:43:26 36° 263° (W) 20:47:23 2200.000
DX 1 31 Jan 20:39:48 20:43:46 36° 71° (ENE) 20:47:48 434.975-435.025
CUBEBUG 2 31 Jan 20:40:17 20:44:48 44° 72° (ENE) 20:49:23 437.445
AAUSAT CUBESAT 2 31 Jan 20:40:23 20:44:34 62° 259° (W) 20:48:45 437.432
BRITE-PL 31 Jan 20:41:19 20:45:58 34° 266° (W) 20:50:53 437.365/2234.400
HO-68 31 Jan 20:42:32 20:49:24 48° 261° (W) 20:56:15 435.675
FUNcube-1 31 Jan 20:46:45 20:50:54 35° 71° (ENE) 20:55:07 145.935
STRAND 1 31 Jan 20:49:07 20:50:35 11° 299° (WNW) 20:51:45 437.568
50 SAT 31 Jan 21:03:11 21:06:12 21° 69° (ENE) 21:09:20 437.505
CUTE 1.7 + AOD 2 31 Jan 21:03:58 21:07:20 22° 267° (W) 21:10:36 437.475
UWE-3 31 Jan 21:14:04 21:18:46 85° 76° (ENE) 21:23:30 435.000/436.395/437.385
Oscar 11 31 Jan 21:14:20 21:18:36 54° 260° (W) 21:22:52 145.826/435.025
YUBILEINY 31 Jan 21:17:19 21:23:45 21° 297° (WNW) 21:29:49 435.215
AISAT 31 Jan 21:17:53 21:21:55 35° 71° (ENE) 21:26:01 437.250
CINEMA 3 31 Jan 21:24:05 21:28:44 40° 263° (W) 21:33:29 145.822/145.860
ANTELSAT 31 Jan 21:28:16 21:29:37 11° 88° (E) 21:31:12 437.575/2403.000
ESTCUBE 1 31 Jan 21:30:43 21:34:02 21° 68° (ENE) 21:37:29 437.505/2401.250
SEEDS 31 Jan 21:32:11 21:34:12 13° 271° (W) 21:35:58 437.485
TIGRISAT 31 Jan 21:33:46 21:35:43 13° 89° (E) 21:37:53 435.000
VELOX 1 31 Jan 21:44:11 21:48:34 67° 75° (ENE) 21:53:02 145.980
CUBEBUG 1 31 Jan 21:44:35 21:48:12 26° 69° (ENE) 21:51:53 437.445
POLYITAN 1 31 Jan 21:51:25 21:53:05 12° 89° (E) 21:54:59 437.675
UKube-1 31 Jan 21:51:37 21:55:37 36° 262° (W) 21:59:37 .
HUMSAT D 31 Jan 21:51:57 21:56:19 81° 260° (W) 22:00:42 437.325/437.525
DELFI C3 31 Jan 21:55:42 21:58:55 22° 266° (W) 22:02:03 145.870
DOVE 4 31 Jan 22:02:26 22:04:06 11° 275° (W) 22:05:25 437.250
AIST 1 31 Jan 22:04:16 22:08:39 84° 82° (E) 22:13:02
ISS 31 Jan 22:05:30 22:08:08 22° 336° (NNW) 22:10:45 145.825
POPSAT HIP 1 31 Jan 22:08:42 22:11:46 19° 93° (E) 22:14:56 437.405
DUCHIFAT 1 31 Jan 22:09:35 22:12:39 20° 92° (E) 22:15:51 145.980
ZACube-1 31 Jan 22:12:19 22:16:18 28° 265° (W) 22:20:15 437.345
DX 1 31 Jan 22:17:00 22:20:11 19° 267° (W) 22:23:15 434.975-435.025
CUBEBUG 2 31 Jan 22:18:22 22:21:46 19° 269° (W) 22:25:01 437.445
FUNcube-1 31 Jan 22:23:45 22:27:22 22° 267° (W) 22:30:53 145.935
UNISAT 6 31 Jan 22:26:20 22:30:40 53° 99° (E) 22:34:55 437.425
50 SAT 31 Jan 22:37:27 22:41:10 31° 264° (W) 22:44:50 437.505
NANOSAT C BR1 31 Jan 22:44:04 22:48:15 49° 99° (E) 22:52:24 145.865
SPROUT 31 Jan 22:53:56 22:57:52 36° 72° (ENE) 23:01:52 437.525
AISAT 31 Jan 22:55:18 22:58:41 20° 267° (W) 23:01:58 437.250
QB50P2 31 Jan 23:00:02 23:04:22 78° 102° (ESE) 23:08:38 145.880/145.840
ANTELSAT 31 Jan 23:02:34 23:06:57 59° 286° (WNW) 23:11:11 437.575/2403.000
BUGSAT 1 31 Jan 23:04:33 23:08:50 65° 101° (E) 23:13:04 437.445
ESTCUBE 1 31 Jan 23:06:37 23:10:45 35° 263° (W) 23:14:51 437.505/2401.250
QB50P1 31 Jan 23:08:18 23:12:39 86° 284° (WNW) 23:16:56 145.935-145.965
TIGRISAT 31 Jan 23:08:37 23:12:56 51° 286° (WNW) 23:17:06 435.000
TISAT 1 31 Jan 23:20:29 23:24:42 72° 76° (ENE) 23:28:59 437.305
CUBEBUG 1 31 Jan 23:20:51 23:24:32 26° 265° (W) 23:28:12 437.445
VELOX 1 31 Jan 23:24:46 23:25:44 10° 272° (W) 23:26:24 145.980
POLYITAN 1 31 Jan 23:25:14 23:29:28 54° 286° (WNW) 23:33:39 437.675
GONETS M04 31 Jan 23:27:18 23:32:56 20° 81° (E) 23:38:58
SWISSCUBE 31 Jan 23:32:11 23:35:10 17° 65° (ENE) 23:38:21 437.505
POPSAT HIP 1 31 Jan 23:43:52 23:47:49 34° 289° (WNW) 23:51:40 437.405
DUCHIFAT 1 31 Jan 23:44:45 23:48:39 34° 289° (WNW) 23:52:29 145.980
ISS 31 Jan 23:44:46 23:45:34 11° 356° (N) 23:46:23 145.825
BEESAT 31 Jan 23:46:43 23:50:19 22° 67° (ENE) 23:54:01 436.000
ITUPSAT 1 31 Jan 23:52:17 23:56:04 25° 68° (ENE) 23:59:58 437.325
UNISAT 6 01 Feb 00:04:40 00:07:03 14° 295° (WNW) 00:09:14 437.425
BEESAT 3 01 Feb 00:11:06 00:12:54 13° 110° (ESE) 00:14:55 437.485
NANOSAT C BR1 01 Feb 00:21:16 00:23:46 15° 294° (WNW) 00:26:04 145.865
SPROUT 01 Feb 00:31:00 00:34:08 19° 268° (W) 00:37:08 437.525
BUGSAT 1 01 Feb 00:42:16 00:43:51 12° 296° (WNW) 00:45:12 437.445
STARS 01 Feb 00:45:08 00:46:06 11° 63° (ENE) 00:47:21 437.465
O/OREOS (USA 219) 01 Feb 00:49:12 00:53:24 34° 62° (ENE) 00:57:38 437.305
KKS-1 01 Feb 00:55:44 00:59:05 22° 68° (ENE) 01:02:34 437.445
SWISSCUBE 01 Feb 01:08:05 01:12:42 50° 260° (W) 01:17:21 437.505
GONETS M04 01 Feb 01:20:06 01:28:54 79° 279° (W) 01:37:40
ISS 01 Feb 01:21:12 01:23:09 15° 16° (NNE) 01:25:09 145.825
BEESAT 01 Feb 01:23:32 01:27:58 38° 262° (W) 01:32:23 436.000
Gurwin Techsat 1B 01 Feb 01:25:37 01:28:32 15° 89° (E) 01:31:43 435.225
Oscar 19 01 Feb 01:25:42 01:30:50 66° 101° (ESE) 01:35:55 437.125/150
ITUPSAT 1 01 Feb 01:29:32 01:33:52 33° 264° (W) 01:38:09 437.325
BEESAT 2 01 Feb 01:35:31 01:39:38 83° 299° (WNW) 01:43:50 435.950
BEESAT 3 01 Feb 01:46:36 01:50:37 55° 304° (NW) 01:54:43 437.485
AIST 2 01 Feb 01:47:27 01:51:34 53° 118° (ESE) 01:55:45 435.215
ITAMSAT 1 01 Feb 01:48:47 01:53:36 37° 97° (E) 01:58:26 435.822/435.867
DANDE 01 Feb 01:58:02 02:01:00 13° 79° (E) 02:04:41 436.750
M-CUBED/EXP-1 PRIME 01 Feb 01:59:21 02:03:03 40° 69° (ENE) 02:06:31 437.505
CUSAT 1 01 Feb 02:08:14 02:13:20 19° 83° (E) 02:18:53 437.405
PCSat 01 Feb 02:17:01 02:20:13 17° 106° (ESE) 02:23:40 145.827
STARS 01 Feb 02:17:35 02:22:03 75° 258° (WSW) 02:26:32 437.465
O/OREOS (USA 219) 01 Feb 02:29:03 02:32:39 22° 258° (WSW) 02:36:08 437.305
AUBIESAT-1 01 Feb 02:29:40 02:33:37 88° 77° (ENE) 02:37:16 437.475
KKS-1 01 Feb 02:31:27 02:35:34 34° 263° (W) 02:39:41 437.445
HORYU 2 01 Feb 02:38:27 02:41:50 22° 94° (E) 02:45:18 437.375
ISS 01 Feb 02:56:55 03:00:11 60° 35° (NE) 03:03:27 145.825
MOZHAYETS 4 01 Feb 02:57:29 03:00:24 17° 67° (ENE) 03:03:27
Gurwin Techsat 1B 01 Feb 03:03:47 03:09:03 63° 287° (WNW) 03:14:18 435.225
Oscar 19 01 Feb 03:06:39 03:09:42 16° 297° (WNW) 03:12:32 437.125/150
BEESAT 2 01 Feb 03:17:22 03:18:37 11° 321° (NW) 03:19:42 435.950
JAS-2 01 Feb 03:21:35 03:24:40 15° 90° (E) 03:28:18 435.910
GONETS M04 01 Feb 03:22:27 03:27:30 15° 302° (WNW) 03:31:59
AIST 2 01 Feb 03:27:32 03:30:32 18° 316° (NW) 03:33:28 435.215
ITAMSAT 1 01 Feb 03:28:36 03:32:58 27° 293° (WNW) 03:37:14 435.822/435.867
DANDE 01 Feb 03:35:00 03:43:13 66° 95° (E) 03:51:44 436.750
M-CUBED/EXP-1 PRIME 01 Feb 03:36:07 03:38:12 13° 262° (W) 03:40:02 437.505
RS-15 01 Feb 03:47:04 03:57:30 55° 113° (ESE) 04:08:05 29.354- 29.394
CUSAT 1 01 Feb 03:47:11 03:55:32 88° 99° (E) 04:03:53 437.405
PCSat 01 Feb 03:57:47 04:03:09 64° 301° (WNW) 04:08:35 145.827
AO-7 01 Feb 04:06:48 04:15:04 65° 104° (ESE) 04:23:18 29.400- 29.500
HORYU 2 01 Feb 04:14:36 04:18:36 33° 290° (WNW) 04:22:31 437.375
MOZHAYETS 4 01 Feb 04:32:54 04:37:19 46° 262° (W) 04:41:44
ISS 01 Feb 04:34:32 04:36:22 14° 230° (SW) 04:38:06 145.825
STRAND 1 01 Feb 04:45:35 04:48:22 15° 63° (ENE) 04:51:22 437.568
CUBESAT XI-V 01 Feb 04:58:12 05:01:49 24° 69° (ENE) 05:05:33 437.345
JAS-2 01 Feb 05:04:28 05:10:18 78° 285° (WNW) 05:16:54 435.910
PRISM 01 Feb 05:15:35 05:19:33 50° 74° (ENE) 05:23:34 437.425
DANDE 01 Feb 05:19:57 05:27:19 31° 293° (WNW) 05:34:31 436.750
YUBILEINY 01 Feb 05:28:33 05:36:30 38° 71° (ENE) 05:44:36 435.215
CUSAT 1 01 Feb 05:33:19 05:39:38 22° 297° (WNW) 05:45:28 437.405
PCSat 01 Feb 05:45:48 05:47:47 12° 322° (NW) 05:49:33 145.827
Cubesat XI-IV 01 Feb 05:56:08 06:01:17 45° 98° (E) 06:06:26 437.490
RS-15 01 Feb 05:59:50 06:10:13 45° 316° (NW) 06:20:38 29.354- 29.394
VERMONT LUNAR 01 Feb 06:00:09 06:02:06 14° 147° (SSE) 06:04:07 437.305
AO-7 01 Feb 06:00:26 06:07:22 29° 302° (WNW) 06:14:05 29.400- 29.500
CUTE-I 01 Feb 06:15:01 06:20:23 67° 101° (E) 06:25:45 437.470
STRAND 1 01 Feb 06:22:01 06:27:05 66° 258° (WSW) 06:32:12 437.568
CUBESAT XI-V 01 Feb 06:35:00 06:39:09 32° 264° (W) 06:43:17 437.345
JAS-2 01 Feb 06:52:51 06:54:51 11° 299° (WNW) 06:56:30 435.910
PRISM 01 Feb 06:53:44 06:55:28 12° 270° (W) 06:56:58 437.425
BRITE-PL 01 Feb 07:11:32 07:12:49 11° 84° (E) 07:14:30 437.365/2234.400
PHONESAT 2.4 01 Feb 07:17:32 07:20:40 29° 153° (SSE) 07:23:51 2401.200-2431.200
YUBILEINY 01 Feb 07:25:14 07:33:31 46° 271° (W) 07:41:42 435.215
VERMONT LUNAR 01 Feb 07:36:22 07:39:46 57° 161° (SSE) 07:43:12 437.305
Cubesat XI-IV 01 Feb 07:36:54 07:41:09 24° 294° (WNW) 07:45:15 437.490
CUTE-I 01 Feb 07:56:37 07:59:59 17° 297° (WNW) 08:03:08 437.470
COMPASS 1 01 Feb 08:02:42 08:04:36 13° 90° (E) 08:06:43 437.405
HO-68 01 Feb 08:11:00 08:17:25 36° 96° (E) 08:23:55 435.675
SO-50 01 Feb 08:13:57 08:16:30 15° 110° (ESE) 08:19:17 436.795
RS-15 01 Feb 08:19:05 08:26:34 19° 348° (NNW) 08:34:02 29.354- 29.394
DOVE 4 01 Feb 08:21:45 08:25:56 26° 92° (E) 08:30:01 437.250
GOMX 1 01 Feb 08:24:59 08:29:59 40° 95° (E) 08:34:46 467.674
AAUSAT CUBESAT 2 01 Feb 08:25:23 08:28:31 21° 93° (E) 08:31:45 437.432
CANX-2 01 Feb 08:25:36 08:29:34 39° 97° (E) 08:33:32 2200.000
ANTELSAT 01 Feb 08:27:08 08:28:42 12° 64° (ENE) 08:30:31 437.575/2403.000
TIGRISAT 01 Feb 08:32:18 08:34:22 13° 64° (ENE) 08:36:38 435.000
BRITE-PL 01 Feb 08:46:36 08:52:17 89° 286° (WNW) 08:57:38 437.365/2234.400
CUTE 1.7 + AOD 2 01 Feb 08:49:05 08:53:18 68° 101° (E) 08:57:29 437.475
PHONESAT 2.4 01 Feb 08:55:25 08:59:01 86° 170° (S) 09:02:39 2401.200-2431.200
POPSAT HIP 1 01 Feb 09:01:59 09:04:14 15° 66° (ENE) 09:06:40 437.405
DUCHIFAT 1 01 Feb 09:02:34 09:04:49 14° 66° (ENE) 09:07:14 145.980
Oscar 11 01 Feb 09:02:56 09:06:37 27° 95° (E) 09:10:20 145.826/435.025
UWE-3 01 Feb 09:06:32 09:09:31 18° 91° (E) 09:12:34 435.000/436.395/437.385
VERMONT LUNAR 01 Feb 09:14:23 09:17:51 75° 357° (N) 09:21:22 437.305
SEEDS 01 Feb 09:14:57 09:19:08 70° 284° (WNW) 09:23:17 437.485
CINEMA 3 01 Feb 09:20:12 09:24:55 56° 99° (E) 09:29:23 145.822/145.860
UNISAT 6 01 Feb 09:24:15 09:28:43 45° 72° (ENE) 09:33:12 437.425
DELFI C3 01 Feb 09:35:46 09:39:44 53° 99° (E) 09:43:42 145.870
NANOSAT C BR1 01 Feb 09:36:12 09:40:02 33° 71° (ENE) 09:43:56 145.865
COMPASS 1 01 Feb 09:36:39 09:40:40 46° 287° (WNW) 09:44:39 437.405
VELOX 1 01 Feb 09:37:28 09:39:42 14° 90° (E) 09:42:09 145.980
HUMSAT D 01 Feb 09:38:36 09:41:21 17° 91° (E) 09:44:13 437.325/437.525
UKube-1 01 Feb 09:39:58 09:44:02 38° 98° (E) 09:48:07 .
SO-50 01 Feb 09:52:06 09:56:36 57° 306° (NW) 10:01:15 436.795
QB50P2 01 Feb 09:52:12 09:56:22 52° 73° (ENE) 10:00:34 145.880/145.840
BUGSAT 1 01 Feb 09:54:06 09:57:56 39° 72° (ENE) 10:01:52 437.445
BEESAT 2 01 Feb 09:56:17 10:00:19 46° 54° (NE) 10:04:19 435.950
HO-68 01 Feb 09:58:33 10:05:15 43° 294° (WNW) 10:11:52 435.675
DOVE 4 01 Feb 09:59:07 10:03:47 35° 290° (WNW) 10:08:10 437.250
QB50P1 01 Feb 10:00:12 10:04:26 63° 75° (ENE) 10:08:42 145.935-145.965
ANTELSAT 01 Feb 10:00:15 10:04:59 76° 258° (WSW) 10:09:40 437.575/2403.000
AAUSAT CUBESAT 2 01 Feb 10:00:37 10:04:14 29° 289° (WNW) 10:07:47 437.432
ZACube-1 01 Feb 10:01:33 10:05:55 62° 100° (E) 10:10:09 437.345
CANX-2 01 Feb 10:02:27 10:05:16 17° 292° (WNW) 10:07:56 2200.000
GOMX 1 01 Feb 10:03:30 10:07:53 25° 293° (WNW) 10:11:59 467.674
DX 1 01 Feb 10:04:44 10:09:09 78° 103° (ESE) 10:13:32 434.975-435.025
TIGRISAT 01 Feb 10:05:57 10:10:38 68° 259° (W) 10:15:19 435.000
BEESAT 3 01 Feb 10:06:45 10:10:54 69° 56° (NE) 10:15:00 437.485
CUBEBUG 2 01 Feb 10:09:12 10:13:45 74° 284° (WNW) 10:18:05 437.445
AIST 2 01 Feb 10:10:23 10:14:08 29° 49° (NE) 10:17:52 435.215
FUNcube-1 01 Feb 10:12:18 10:16:43 82° 102° (ESE) 10:20:59 145.935
POLYITAN 1 01 Feb 10:17:17 10:21:36 81° 258° (WSW) 10:25:58 437.675
50 SAT 01 Feb 10:17:30 10:21:13 35° 97° (E) 10:24:54 437.505
BRITE-PL 01 Feb 10:27:26 10:29:59 13° 299° (WNW) 10:32:13 437.365/2234.400
CUTE 1.7 + AOD 2 01 Feb 10:27:49 10:28:45 10° 295° (WNW) 10:29:26 437.475
AIST 1 01 Feb 10:33:00 10:37:06 51° 94° (E) 10:41:16
PHONESAT 2.4 01 Feb 10:34:02 10:37:39 80° 4° (N) 10:41:18 2401.200-2431.200
POPSAT HIP 1 01 Feb 10:35:36 10:39:46 50° 260° (W) 10:43:59 437.405
RS-15 01 Feb 10:36:04 10:44:30 24° 23° (NNE) 10:53:26 29.354- 29.394
DUCHIFAT 1 01 Feb 10:36:09 10:40:18 50° 261° (W) 10:44:30 145.980
Oscar 11 01 Feb 10:39:12 10:42:43 24° 291° (WNW) 10:46:10 145.826/435.025
UWE-3 01 Feb 10:42:09 10:46:18 38° 288° (WNW) 10:50:17 435.000/436.395/437.385
AISAT 01 Feb 10:45:46 10:50:19 82° 103° (ESE) 10:54:50 437.250
VERMONT LUNAR 01 Feb 10:52:31 10:56:00 74° 195° (SSW) 10:59:30 437.305
CINEMA 3 01 Feb 10:58:48 11:01:39 15° 296° (WNW) 11:04:15 145.822/145.860
ESTCUBE 1 01 Feb 10:59:50 11:04:14 50° 99° (E) 11:08:39 437.505/2401.250
UNISAT 6 01 Feb 11:02:30 11:05:46 18° 269° (W) 11:08:51 437.425
PCSat 01 Feb 11:04:42 11:07:36 15° 41° (NE) 11:10:42 145.827
Oscar 19 01 Feb 11:06:54 11:08:08 11° 61° (ENE) 11:09:41 437.125/150
TISAT 1 01 Feb 11:08:17 11:09:59 12° 89° (E) 11:11:55 437.305
CUBEBUG 1 01 Feb 11:09:50 11:14:15 60° 100° (E) 11:18:39 437.445
VELOX 1 01 Feb 11:12:17 11:16:41 52° 287° (WNW) 11:21:02 145.980
NANOSAT C BR1 01 Feb 11:12:48 11:16:01 20° 267° (W) 11:19:09 145.865
DELFI C3 01 Feb 11:12:52 11:14:35 12° 294° (WNW) 11:16:07 145.870
HUMSAT D 01 Feb 11:13:28 11:17:21 36° 288° (WNW) 11:21:09 437.325/437.525
UKube-1 01 Feb 11:16:50 11:19:58 19° 293° (WNW) 11:22:59 .
QB50P2 01 Feb 11:30:34 11:32:40 13° 270° (W) 11:34:33 145.880/145.840
BUGSAT 1 01 Feb 11:31:06 11:33:41 16° 269° (W) 11:36:09 437.445
GONETS M04 01 Feb 11:31:33 11:39:55 50° 75° (ENE) 11:48:19
BEESAT 2 01 Feb 11:35:38 11:38:12 16° 249° (WSW) 11:40:36 435.950
QB50P1 01 Feb 11:39:56 11:40:51 10° 272° (W) 11:41:29 145.935-145.965
ZACube-1 01 Feb 11:39:58 11:41:49 12° 296° (WNW) 11:43:26 437.345
DX 1 01 Feb 11:44:04 11:44:51 10° 297° (WNW) 11:45:23 434.975-435.025
BEESAT 3 01 Feb 11:48:03 11:48:32 10° 251° (WSW) 11:48:46 437.485
AIST 2 01 Feb 11:49:02 11:52:43 27° 246° (WSW) 11:56:16 435.215
50 SAT 01 Feb 11:53:23 11:56:06 17° 292° (WNW) 11:58:41 437.505
PHONESAT 2.4 01 Feb 12:12:40 12:16:09 45° 202° (SSW) 12:19:38 2401.200-2431.200
AIST 1 01 Feb 12:13:16 12:15:13 12° 292° (WNW) 12:16:56
SPROUT 01 Feb 12:17:07 12:21:30 82° 103° (ESE) 12:25:50 437.525
AISAT 01 Feb 12:25:53 12:26:22 10° 298° (WNW) 12:26:34 437.250
VERMONT LUNAR 01 Feb 12:31:04 12:33:48 21° 210° (SSW) 12:36:31 437.305
ESTCUBE 1 01 Feb 12:37:56 12:40:46 16° 294° (WNW) 12:43:26 437.505/2401.250
Oscar 19 01 Feb 12:41:36 12:46:48 87° 77° (ENE) 12:52:02 437.125/150
TISAT 1 01 Feb 12:42:01 12:46:14 53° 286° (WNW) 12:50:24 437.305
Gurwin Techsat 1B 01 Feb 12:45:36 12:49:41 24° 66° (ENE) 12:53:54 435.225
PCSat 01 Feb 12:46:29 12:51:57 85° 61° (ENE) 12:57:22 145.827
CUBEBUG 1 01 Feb 12:47:59 12:50:11 13° 295° (WNW) 12:52:11 437.445
RS-15 01 Feb 12:48:34 12:59:49 64° 52° (NE) 13:11:38 29.354- 29.394
ITAMSAT 1 01 Feb 13:05:55 13:10:54 52° 72° (ENE) 13:15:58 435.822/435.867
SWISSCUBE 01 Feb 13:09:17 13:13:51 44° 99° (E) 13:18:26 437.505
AO-7 01 Feb 13:16:08 13:21:06 18° 52° (NE) 13:26:28 29.400- 29.500
BEESAT 01 Feb 13:24:16 13:28:59 58° 101° (E) 13:33:42 436.000
GONETS M04 01 Feb 13:28:55 13:36:30 34° 274° (W) 13:43:54
ITUPSAT 1 01 Feb 13:30:25 13:35:13 66° 102° (ESE) 13:39:59 437.325
HORYU 2 01 Feb 13:36:36 13:39:46 20° 67° (ENE) 13:43:03 437.375
PHONESAT 2.4 01 Feb 13:53:09 13:54:12 11° 215° (SW) 13:55:08 2401.200-2431.200
STARS 01 Feb 14:09:16 14:12:37 21° 93° (E) 14:16:04 437.465
DANDE 01 Feb 14:22:38 14:28:30 42° 71° (ENE) 14:32:55 436.750
KKS-1 01 Feb 14:23:10 14:27:31 47° 99° (E) 14:31:50 437.445
Gurwin Techsat 1B 01 Feb 14:24:23 14:29:26 43° 262° (W) 14:34:29 435.225
Oscar 19 01 Feb 14:26:15 14:26:57 10° 274° (W) 14:27:15 437.125/150
CUSAT 1 01 Feb 14:32:14 14:37:55 62° 76° (ENE) 14:42:06 437.405
PCSat 01 Feb 14:32:41 14:34:43 12° 256° (WSW) 14:36:25 145.827
ITAMSAT 1 01 Feb 14:47:11 14:50:47 18° 269° (W) 14:54:12 435.822/435.867
SWISSCUBE 01 Feb 14:47:58 14:51:27 20° 294° (WNW) 14:54:48 437.505
O/OREOS (USA 219) 01 Feb 15:00:27 15:04:42 46° 107° (ESE) 15:09:04 437.305
RS-15 01 Feb 15:01:36 15:11:50 38° 252° (WSW) 15:22:09 29.354- 29.394
BEESAT 01 Feb 15:03:34 15:06:25 15° 296° (WNW) 15:09:06 436.000
AO-7 01 Feb 15:04:26 15:12:47 79° 71° (ENE) 15:21:11 29.400- 29.500
ITUPSAT 1 01 Feb 15:10:07 15:12:38 14° 296° (WNW) 15:14:55 437.325
HORYU 2 01 Feb 15:11:59 15:16:12 39° 262° (W) 15:20:25 437.375
M-CUBED/EXP-1 PRIME 01 Feb 15:16:40 15:19:45 33° 103° (ESE) 15:22:58 437.505
JAS-2 01 Feb 15:17:09 15:22:02 37° 70° (ENE) 15:26:48 435.910
STARS 01 Feb 15:45:11 15:49:12 33° 289° (WNW) 15:53:09 437.465
AUBIESAT-1 01 Feb 15:46:29 15:49:52 78° 109° (ESE) 15:53:23 437.475
